TimeCDT,TemperatureF,Dew PointF,Humidity,Sea Level PressureIn,VisibilityMPH,Wind Direction,Wind SpeedMPH,Gust SpeedMPH,PrecipitationIn,Events,Conditions,WindDirDegrees,DateUTC
12:53 AM,73.9,72.0,93,30.23,10.0,Calm,Calm,-,N/A,,Clear,0,2013-07-17 05:53:00
1:53 AM,73.0,71.1,93,30.23,10.0,Calm,Calm,-,N/A,,Partly Cloudy,0,2013-07-17 06:53:00
2:53 AM,71.1,70.0,96,30.22,8.0,Calm,Calm,-,N/A,,Clear,0,2013-07-17 07:53:00
3:53 AM,71.1,70.0,96,30.22,8.0,Calm,Calm,-,N/A,,Clear,0,2013-07-17 08:53:00
4:53 AM,73.9,72.0,93,30.22,10.0,ENE,3.5,-,N/A,,Clear,60,2013-07-17 09:53:00
5:53 AM,70.0,69.1,97,30.23,3.0,Calm,Calm,-,N/A,,Clear,0,2013-07-17 10:53:00
5:57 AM,69.8,69.8,100,30.21,1.8,Calm,Calm,-,N/A,,Clear,0,2013-07-17 10:57:00
6:08 AM,71.6,69.8,94,30.21,3.0,Calm,Calm,-,N/A,,Clear,0,2013-07-17 11:08:00
6:53 AM,73.9,73.0,97,30.24,8.0,ENE,3.5,-,N/A,,Clear,60,2013-07-17 11:53:00
7:53 AM,80.1,73.9,81,30.26,10.0,ENE,4.6,-,N/A,,Clear,60,2013-07-17 12:53:00
8:53 AM,82.9,73.9,74,30.26,10.0,East,4.6,-,N/A,,Clear,80,2013-07-17 13:53:00
9:53 AM,84.9,73.0,67,30.27,10.0,Variable,4.6,-,N/A,,Clear,0,2013-07-17 14:53:00
10:53 AM,89.1,72.0,57,30.28,10.0,ENE,5.8,-,N/A,,Clear,70,2013-07-17 15:53:00
11:53 AM,90.0,70.0,52,30.27,10.0,East,4.6,-,N/A,,Clear,90,2013-07-17 16:53:00
12:53 PM,91.0,69.1,48,30.26,10.0,East,6.9,-,N/A,,Clear,80,2013-07-17 17:53:00
1:53 PM,93.0,70.0,47,30.25,10.0,East,3.5,-,N/A,,Partly Cloudy,90,2013-07-17 18:53:00
2:53 PM,93.9,72.0,49,30.22,10.0,NNE,6.9,-,N/A,,Clear,20,2013-07-17 19:53:00
3:53 PM,93.9,71.1,47,30.19,10.0,ENE,4.6,-,N/A,,Clear,60,2013-07-17 20:53:00
4:53 PM,93.9,71.1,47,30.17,10.0,Variable,5.8,-,N/A,,Clear,0,2013-07-17 21:53:00
5:53 PM,93.0,72.0,50,30.15,10.0,NE,9.2,-,N/A,,Clear,40,2013-07-17 22:53:00
6:53 PM,91.0,73.9,57,30.16,10.0,North,3.5,-,N/A,,Clear,350,2013-07-17 23:53:00
7:53 PM,82.9,78.1,85,30.17,10.0,Calm,Calm,-,N/A,,Clear,0,2013-07-18 00:53:00
8:53 PM,79.0,73.0,82,30.17,10.0,Calm,Calm,-,N/A,,Clear,0,2013-07-18 01:53:00
9:53 PM,75.0,72.0,90,30.18,10.0,SW,4.6,-,N/A,,Clear,220,2013-07-18 02:53:00
10:53 PM,73.0,71.1,93,30.19,10.0,Calm,Calm,-,N/A,,Clear,0,2013-07-18 03:53:00
11:53 PM,73.0,71.1,93,30.19,10.0,Calm,Calm,-,N/A,,Clear,0,2013-07-18 04:53:00